Weather History for Paso Robles, CA

Change the Weather History Date:

Saturday, November 2, 2013

  Actual Average Record
Temperature  
Mean Temperature 60 °F 57 °F  
Max Temperature 83 °F 73 °F 94 °F (1997)
Min Temperature 37 °F 41 °F 23 °F (2003)
Degree Days  
Heating Degree Days 5 8  
Month to date heating degree days 10 16  
Since 1 July heating degree days 160 186  
Cooling Degree Days 0 0  
Month to date cooling degree days 0 0  
Year to date cooling degree days 1173 926  
Growing Degree Days 10 (Base 50)    
Moisture  
Dew Point 34 °F    
Average Humidity 42    
Maximum Humidity 70    
Minimum Humidity 13    
Precipitation  
Precipitation 0.00 in 0.04 in 0.30 in (1957)
Month to date precipitation 0.00 0.07  
Year to date precipitation 1.48 9.81  
Since 1 July precipitation 0.02 1.02  
Sea Level Pressure  
Sea Level Pressure 29.95 in    
Wind  
Wind Speed 4 mph (West)    
Max Wind Speed 17 mph    
Max Gust Speed 21 mph    
Visibility 10 miles    
Events      
T = Trace of Precipitation, MM = Missing Value Source: NWS Daily Summary

Daily Weather History Graph

Daily Weather History Graph

Search for Another Location

Airport:

Trip Planner

Search our weather history database for the weather conditions in past years. The results will help you decide how hot, cold, wet, or windy it might be!

Date:

Astronomy

Nov. 02, 2013 Rise Set
Actual Time 7:25 AM PDT 6:05 PM PDT
Civil Twilight 6:59 AM PDT 6:32 PM PDT
Nautical Twilight 6:29 AM PDT 7:02 PM PDT
Astronomical Twilight 5:59 AM PDT 7:32 PM PDT
Moon 6:30 AM PDT (11/2) 5:40 PM PDT (11/2)
Length of Visible Light 11h 32m
Length of Day
10h 40m
Waning Crescent, 1% of the Moon is Illuminated
Nov 2
Waning Crescent
Nov 3
New
Nov 9
First Quarter
Nov 17
Full
Nov 25
Last Quarter

Hourly Weather History & Observations

Time (PDT) Temp. Windchill Dew Point Humidity Pressure Visibility Wind Dir Wind Speed Gust Speed Precip Events Conditions
12:53 AM 48.0 °F - 32.0 °F 54% 30.04 in 10.0 mi Calm Calm - N/A   Clear
1:53 AM 45.0 °F - 30.9 °F 58% 30.04 in 10.0 mi Calm Calm - N/A   Clear
2:53 AM 44.1 °F - 30.9 °F 60% 30.03 in 10.0 mi Calm Calm - N/A   Clear
3:53 AM 41.0 °F 39.0 °F 30.0 °F 65% 30.02 in 10.0 mi South 3.5 mph - N/A   Clear
4:53 AM 39.0 °F - 28.0 °F 65% 30.02 in 10.0 mi Calm Calm - N/A   Clear
5:53 AM 37.9 °F - 28.0 °F 68% 30.02 in 10.0 mi Calm Calm - N/A   Clear
6:53 AM 39.0 °F - 28.9 °F 67% 30.02 in 10.0 mi Calm Calm - N/A   Clear
7:53 AM 37.9 °F - 28.9 °F 70% 30.02 in 10.0 mi Calm Calm - N/A   Clear
8:53 AM 44.1 °F - 30.9 °F 60% 30.03 in 10.0 mi Calm Calm - N/A   Clear
9:53 AM 51.1 °F - 33.1 °F 50% 30.01 in 10.0 mi Calm Calm - N/A   Clear
10:53 AM 57.9 °F - 33.1 °F 39% 29.99 in 10.0 mi Calm Calm - N/A   Clear
11:53 AM 64.9 °F - 35.1 °F 33% 29.96 in 10.0 mi Calm Calm - N/A   Clear
12:53 PM 73.0 °F - 37.0 °F 27% 29.93 in 10.0 mi Calm Calm - N/A   Clear
1:53 PM 79.0 °F - 35.1 °F 20% 29.89 in 10.0 mi SSW 4.6 mph - N/A   Clear
2:53 PM 81.0 °F - 27.0 °F 14% 29.87 in 10.0 mi Variable 3.5 mph - N/A   Clear
3:53 PM 82.0 °F - 26.1 °F 13% 29.86 in 10.0 mi WSW 3.5 mph - N/A   Clear
4:53 PM 79.0 °F - 34.0 °F 20% 29.87 in 10.0 mi SW 10.4 mph - N/A   Clear
5:53 PM 73.0 °F - 32.0 °F 22% 29.88 in 10.0 mi WNW 10.4 mph - N/A   Clear
6:53 PM 68.0 °F - 33.1 °F 27% 29.89 in 10.0 mi WNW 10.4 mph - N/A   Clear
7:53 PM 64.0 °F - 41.0 °F 43% 29.90 in 10.0 mi WNW 12.7 mph - N/A   Clear
8:53 PM 62.1 °F - 43.0 °F 50% 29.89 in 10.0 mi WNW 15.0 mph - N/A   Clear
9:53 PM 57.9 °F - 42.1 °F 56% 29.91 in 10.0 mi WNW 5.8 mph - N/A   Clear
10:53 PM 55.0 °F - 42.1 °F 62% 29.91 in 10.0 mi Calm Calm - N/A   Clear
11:53 PM 55.0 °F - 45.0 °F 69% 29.91 in 10.0 mi NW 12.7 mph 18.4 mph N/A   Clear